Location: Devore Heights
(34.2372°N, 117.4156°W)
Time: 22:35:43
(UTC+00:00)

Transit 4A - Pass Details

Date: 21 September 2024
Orbit: 864 x 978 km, 66.8° (Epoch: 13 October)

Event Time Altitude Azimuth Distance (km) Brightness Sun altitude
Rises 18:02:45 0° 338° (NNW) 3,619 10.6 48.8°
Reaches altitude 10° 18:05:21 10° 343° (NNW) 2,685 10.1 49.2°
Maximum altitude 18:11:30 55° 61° (ENE) 1,147 9.2 49.9°
Drops below altitude 10° 18:17:44 10° 138° (SE) 2,716 11.2 50.7°
Sets 18:20:22 0° 143° (SE) 3,662 11.6 51.0°
